Waarnemingen

Advertentie
Mijn weer
Beauvechain, België (6458): temperatuur & dauwpunt: 16.04.2019 16:00:00 - 22.04.2019 16:00:00 (CEST)Beauvechain, België (6458): windsnelheid & windstoten: 16.04.2019 16:00:00 - 22.04.2019 16:00:00 (CEST)Beauvechain, België (6458): windrichting: 16.04.2019 16:00:00 - 22.04.2019 16:00:00 (CEST)Beauvechain, België (6458): luchtdruk: 16.04.2019 16:00:00 - 22.04.2019 16:00:00 (CEST)Beauvechain, België (6458): zicht: 16.04.2019 16:00:00 - 22.04.2019 16:00:00 (CEST)
Datum & Tijd tt [°C] td [°C] ff [km/u] ff [kn] fx [km/u] fx [kn] dd ppp [hPa] vv [km]
22.04.2019 16:00:00 23,7 1,8 14 8 29 16 O 1004,8 13
22.04.2019 15:00:00 24,2 1,3 16 9 25 14 O 1005,7 10
22.04.2019 14:00:00 23,2 -0,5 14 8 - - OZO 1006,5 17
22.04.2019 13:00:00 22,6 -1,3 21 11 32 18 ZO 1007,2 6
22.04.2019 12:00:00 21,8 2,2 11 6 22 12 OZO 1008,2 20
22.04.2019 11:00:00 19,2 3,8 11 6 - - O 1009,1 6
22.04.2019 10:00:00 16,3 5,4 14 8 18 10 O 1009,6 19
22.04.2019 09:00:00 15,1 2,3 7 4 14 8 O 1010,0 19
22.04.2019 08:00:00 11,3 3,9 7 4 - - N 1010,5 20
22.04.2019 07:00:00 11,8 1,9 4 2 4 2 N 1010,7 20
22.04.2019 06:00:00 12,2 1,8 4 2 14 8 N 1011,0 20
22.04.2019 05:00:00 14,7 0,5 4 2 - - N 1011,5 20
22.04.2019 04:00:00 14,4 1,7 7 4 11 6 OZO 1012,2 20
22.04.2019 03:00:00 13,6 1,9 7 4 11 6 O 1012,7 20
22.04.2019 02:00:00 14,6 1,8 7 4 - - O 1013,5 20
22.04.2019 01:00:00 15,6 1,4 7 4 14 8 ONO 1014,0 20
22.04.2019 00:00:00 15,2 2,3 11 6 14 8 O 1014,5 20
21.04.2019 23:00:00 17,3 1,7 4 2 - - N 1014,7 20
21.04.2019 22:00:00 18,4 2,5 4 2 7 4 N 1015,1 20
21.04.2019 21:00:00 19,6 2,9 7 4 11 6 ONO 1015,1 20
21.04.2019 20:00:00 20,1 4,5 7 4 - - ONO 1015,0 20
21.04.2019 19:00:00 21,7 4,2 11 6 18 10 NO 1015,3 20
21.04.2019 18:00:00 22,6 4,4 11 6 22 12 NO 1016,0 20
21.04.2019 17:00:00 22,9 4,4 13 7 - - ONO 1016,7 1,5
21.04.2019 16:00:00 22,7 3,1 7 4 18 10 N 1017,5 20
21.04.2019 15:00:00 22,7 2,0 9 5 18 10 ONO 1018,2 10
21.04.2019 14:00:00 22,2 7,5 9 5 - - ONO 1019,2 3,1
21.04.2019 13:00:00 20,4 5,7 11 6 18 10 NNO 1020,0 16
21.04.2019 12:00:00 18,7 5,7 7 4 14 8 NO 1020,8 18
21.04.2019 11:00:00 17,1 7,1 7 4 - - NO 1021,6 15
21.04.2019 10:00:00 14,7 5,9 7 4 11 6 ONO 1022,1 17
21.04.2019 09:00:00 12,0 4,0 7 4 11 6 NO 1022,3 17
21.04.2019 08:00:00 9,8 3,3 4 2 - - N 1022,6 20
21.04.2019 07:00:00 9,6 1,4 4 2 11 6 N 1022,7 19
21.04.2019 06:00:00 9,8 1,9 7 4 14 8 ONO 1023,1 18
21.04.2019 05:00:00 10,5 2,5 4 2 - - N 1023,6 20
21.04.2019 04:00:00 11,9 2,8 4 2 7 4 N 1024,0 20
21.04.2019 03:00:00 12,4 3,3 4 2 7 4 N 1024,5 20
21.04.2019 02:00:00 13,5 3,5 7 4 - - ONO 1024,9 20
21.04.2019 01:00:00 13,5 3,8 7 4 14 8 ONO 1025,4 20
21.04.2019 00:00:00 14,5 3,5 11 6 14 8 ONO 1025,7 20
20.04.2019 23:00:00 15,4 2,5 7 4 - - NO 1025,5 20
20.04.2019 22:00:00 17,7 2,7 4 2 7 4 N 1025,5 20
20.04.2019 21:00:00 18,9 3,7 4 2 11 6 N 1025,2 20
20.04.2019 20:00:00 20,7 4,8 7 4 - - ONO 1025,2 20
20.04.2019 19:00:00 21,8 5,1 11 6 22 12 NO 1025,4 20
20.04.2019 18:00:00 22,7 4,8 11 6 25 14 NO 1025,7 20
20.04.2019 17:00:00 23,2 3,6 14 8 - - ONO 1026,2 20
20.04.2019 16:00:00 23,2 2,8 14 8 25 14 NO 1026,7 20
20.04.2019 15:00:00 23,1 5,2 14 8 25 14 ONO 1027,4 20
20.04.2019 14:00:00 22,2 6,3 11 6 - - NO 1027,9 19
20.04.2019 13:00:00 20,7 7,6 14 8 22 12 NO 1028,5 19
20.04.2019 12:00:00 18,9 7,0 11 6 14 8 NO 1028,7 19
20.04.2019 11:00:00 17,3 6,9 11 6 - - NNO 1029,0 19
20.04.2019 10:00:00 15,0 4,7 7 4 11 6 NO 1029,2 19
20.04.2019 09:00:00 12,8 5,2 7 4 11 6 NO 1029,2 20
20.04.2019 08:00:00 10,6 3,8 4 2 - - N 1029,0 20
20.04.2019 07:00:00 12,1 2,1 4 2 0 0 N 1028,4 20
20.04.2019 06:00:00 11,6 2,0 4 2 4 2 N 1028,2 20
20.04.2019 05:00:00 13,2 1,7 4 2 - - N 1028,4 20
20.04.2019 04:00:00 13,9 1,9 4 2 11 6 N 1028,2 20
20.04.2019 03:00:00 16,2 0,6 4 2 7 4 N 1027,9 20
20.04.2019 02:00:00 15,1 1,8 4 2 - - N 1028,2 20
20.04.2019 01:00:00 16,0 2,0 5 3 11 6 O 1028,2 10
20.04.2019 00:00:00 16,0 2,7 7 4 11 6 ONO 1028,2 20
19.04.2019 23:00:00 17,7 2,6 7 4 - - ONO 1027,7 20
19.04.2019 22:00:00 17,7 3,3 7 4 11 6 NO 1027,5 20
19.04.2019 21:00:00 17,9 4,0 7 4 14 8 NNO 1027,0 20
19.04.2019 20:00:00 20,0 4,9 11 6 - - ONO 1026,7 20
19.04.2019 19:00:00 21,8 5,9 11 6 18 10 ONO 1026,2 20
19.04.2019 18:00:00 22,5 6,9 11 6 22 12 NO 1026,0 20
19.04.2019 17:00:00 22,9 7,0 11 6 - - NO 1026,0 19
19.04.2019 16:00:00 22,7 5,8 14 8 22 12 ONO 1026,2 20
19.04.2019 15:00:00 22,2 5,5 7 4 22 12 OZO 1026,4 17
19.04.2019 14:00:00 21,9 6,5 11 6 - - ONO 1026,5 20
19.04.2019 13:00:00 20,3 6,5 14 8 22 12 ONO 1026,9 19
19.04.2019 12:00:00 18,9 6,7 11 6 18 10 NO 1027,0 20
19.04.2019 11:00:00 16,1 6,3 11 6 - - ONO 1027,4 20
19.04.2019 10:00:00 14,4 5,4 11 6 18 10 ONO 1027,2 20
19.04.2019 09:00:00 12,1 4,5 7 4 18 10 ONO 1027,0 20
19.04.2019 08:00:00 11,3 3,4 11 6 - - ONO 1026,7 20
19.04.2019 07:00:00 10,5 2,8 11 6 14 8 ONO 1026,2 10
19.04.2019 06:00:00 11,3 2,8 11 6 14 8 O 1025,9 20
19.04.2019 05:00:00 11,6 3,0 11 6 - - O 1025,7 20
19.04.2019 04:00:00 11,6 3,2 11 6 14 8 O 1025,5 20
19.04.2019 03:00:00 12,3 3,4 11 6 14 8 O 1025,2 20
19.04.2019 02:00:00 11,3 3,6 7 4 - - ONO 1025,4 20
19.04.2019 01:00:00 12,2 3,3 7 4 11 6 NO 1025,2 20
19.04.2019 00:00:00 13,8 3,3 4 2 7 4 N 1024,7 20
18.04.2019 23:00:00 15,7 3,0 4 2 - - N 1024,4 20
18.04.2019 22:00:00 16,3 3,0 7 4 11 6 O 1023,8 20
18.04.2019 21:00:00 16,2 3,9 7 4 18 10 NO 1023,6 20
18.04.2019 20:00:00 18,1 4,4 11 6 - - ONO 1022,8 20
18.04.2019 19:00:00 19,7 4,3 18 10 29 16 ONO 1022,3 20
18.04.2019 18:00:00 20,1 4,5 18 10 29 16 O 1022,3 20
18.04.2019 17:00:00 20,3 3,9 22 12 - - ONO 1022,3 20
18.04.2019 16:00:00 20,6 5,7 18 10 29 16 ONO 1022,5 20
18.04.2019 15:00:00 20,4 5,6 22 12 36 19 ONO 1022,6 20
18.04.2019 14:00:00 19,5 3,9 18 10 - - ONO 1022,8 20
18.04.2019 13:00:00 18,7 4,6 18 10 25 14 ONO 1023,2 20
18.04.2019 12:00:00 18,1 5,7 14 8 22 12 ONO 1023,8 20
18.04.2019 11:00:00 15,2 5,6 11 6 - - O 1024,0 20
18.04.2019 10:00:00 13,0 5,9 11 6 18 10 O 1023,8 12
18.04.2019 09:00:00 11,1 5,8 14 8 18 10 O 1023,6 11
18.04.2019 08:00:00 9,6 6,3 11 6 - - O 1023,3 9
18.04.2019 07:00:00 8,1 5,9 11 6 14 8 O 1022,8 7
18.04.2019 06:00:00 8,9 6,6 7 4 14 8 O 1022,6 9
18.04.2019 05:00:00 9,5 7,1 11 6 - - O 1022,7 10
18.04.2019 04:00:00 8,5 6,7 7 4 11 6 ONO 1023,0 7
18.04.2019 03:00:00 9,3 7,1 7 4 11 6 O 1022,7 9
18.04.2019 02:00:00 9,9 7,2 4 2 - - N 1022,8 10
18.04.2019 01:00:00 9,5 6,7 7 4 11 6 O 1022,8 9
18.04.2019 00:00:00 9,9 6,5 7 4 7 4 NO 1022,8 9
17.04.2019 23:00:00 11,0 6,8 7 4 - - O 1022,5 10
17.04.2019 22:00:00 11,5 6,8 4 2 11 6 N 1022,6 9
17.04.2019 21:00:00 11,7 6,6 11 6 14 8 ONO 1021,8 10
17.04.2019 20:00:00 13,6 7,2 7 4 - - ONO 1021,6 14
17.04.2019 19:00:00 14,0 7,0 7 4 11 6 O 1021,6 14
17.04.2019 18:00:00 14,3 6,9 7 4 11 6 O 1021,7 14
17.04.2019 17:00:00 14,1 7,1 4 2 - - N 1021,8 14
17.04.2019 16:00:00 14,1 6,8 7 4 14 8 Z 1021,8 14
17.04.2019 15:00:00 14,1 7,0 4 2 14 8 N 1021,8 12
17.04.2019 14:00:00 13,1 7,1 7 4 - - Z 1022,0 10
17.04.2019 13:00:00 13,1 6,8 7 4 14 8 Z 1021,7 10
17.04.2019 12:00:00 12,8 6,9 8 4 11 6 ZZW 1021,7 9
17.04.2019 11:00:00 11,6 7,5 7 4 - - Z 1021,7 6
17.04.2019 10:00:00 10,8 7,5 7 4 11 6 ZW 1021,2 4,5
17.04.2019 09:00:00 10,0 7,5 4 2 7 4 N 1020,7 5
17.04.2019 08:00:00 9,7 7,7 4 2 - - N 1020,3 6
17.04.2019 07:00:00 9,5 7,6 7 4 7 4 ZZW 1019,8 5
17.04.2019 06:00:00 9,6 7,7 4 2 7 4 N 1019,3 6
17.04.2019 05:00:00 9,6 7,8 4 2 - - N 1019,2 8
17.04.2019 04:00:00 9,9 7,6 8 4 11 6 Z 1019,2 10
17.04.2019 03:00:00 10,0 7,5 7 4 7 4 ZO 1019,0 20
17.04.2019 02:00:00 10,1 7,5 4 2 - - N 1018,8 20
17.04.2019 01:00:00 10,3 7,3 4 2 7 4 N 1018,8 20
17.04.2019 00:00:00 10,8 7,3 4 2 7 4 N 1018,7 20
16.04.2019 23:00:00 11,1 7,1 4 2 - - N 1018,5 20
16.04.2019 22:00:00 11,5 6,8 4 2 11 6 N 1018,2 20
16.04.2019 21:00:00 11,8 6,4 7 4 14 8 Z 1017,7 20
16.04.2019 20:00:00 12,8 6,7 11 6 - - Z 1017,1 20
16.04.2019 19:00:00 13,3 6,7 14 8 25 14 Z 1016,6 20
16.04.2019 18:00:00 14,0 6,8 18 10 32 18 Z 1016,0 20
16.04.2019 17:00:00 15,2 5,6 22 12 - - Z 1015,5 20
16.04.2019 16:00:00 16,3 4,6 18 10 25 14 Z 1015,1 20

tt = temperatuur
td = dauwpunt
ff = windsnelheid
fx = windstoten
dd = windrichting
ppp = luchtdruk
vv = zicht

Weerstations in de omgeving